NOAA NWS Hourly Roundups by Site

Regional Weather Roundup for Omaha, NE

To Select Another Site Choose from List

Select Site:  

000
ASUS43 KOAX 190810
RWRNE

WEATHER ROUNDUP FOR NEBRASKA
NATIONAL WEATHER SERVICE OMAHA NE
300 AM CDT WED JUN 19 2019

NOTES: SATELLITE DATA IS BEING USED TO AUGMENT CLOUD COVER ABOVE
       12000 FEET.
       "FAIR" INDICATES FEW OR NO CLOUDS BELOW 12,000 FEET WITH NO
       SIGNIFICANT WEATHER AND/OR OBSTRUCTIONS TO VISIBILITY.


NEZ001>004-019>022-054>056-190900-
NEBRASKA PANHANDLE

CITY           SKY/WX    TMP DP  RH WIND       PRES   REMARKS
SCOTTSBLUFF    FOG       54  54 100 SW5       29.93F VSB 1/4
ALLIANCE       CLOUDY    56  54  93 S5        29.91F
CHADRON        MOCLDY    56  53  90 SW6       29.90F
GORDON         CLOUDY    58  57  96 CALM      29.91S
KIMBALL        FAIR      50  49  97 W6        29.97F
SIDNEY         FOG       54  52  93 SW3       29.94F VSB 1/4
$$

NEZ057>060-069>072-079>082-190900-
SOUTHWEST NEBRASKA

CITY           SKY/WX    TMP DP  RH WIND       PRES   REMARKS
NORTH PLATTE   CLOUDY    59  56  89 CALM      29.90F
IMPERIAL       CLOUDY    61  56  83 S8        29.91S
LEXINGTON      CLOUDY    56  56 100 CALM      29.90S FOG
MCCOOK         CLOUDY    59  58  96 E3        29.90S FOG
OGALLALA       CLOUDY    61  61  99 MISG      29.91F FOG
$$

NEZ005>010-023>029-035>040-094-190900-
NORTH CENTRAL NEBRASKA

CITY           SKY/WX    TMP DP  RH WIND       PRES   REMARKS
VALENTINE      CLOUDY    61  53  75 CALM      29.90F
AINSWORTH      FAIR      56  56  99 SW3       29.90F
BROKEN BOW     FAIR      53  52  96 N5        29.89F
O`NEILL        FAIR      55  54  95 W3        29.89F
ORD            FAIR      51  50  96 CALM      29.87F
THEDFORD       MOCLDY    55  54  95 NW3       29.91F
$$

NEZ041-046>049-061>064-073>077-083>087-190900-
SOUTH CENTRAL NEBRASKA

CITY           SKY/WX    TMP DP  RH WIND       PRES   REMARKS
GRAND ISLAND   CLOUDY    60  57  89 N3        29.89R
AURORA         FOG       59  59 100 NE5       29.88R VSB 1/4
HASTINGS       CLOUDY    60  59  96 NE5       29.89S FOG
HEBRON         CLOUDY    63  62  96 N5        29.85F FOG
HOLDREGE       CLOUDY    58  58 100 NE7       29.89S FOG
KEARNEY        FOG       58  58 100 NE3       29.89S VSB 3/4
YORK           CLOUDY    59  59 100 NE6       29.87S FOG
$$

NEZ011>018-030>034-042>045-190900-
NORTHEAST NEBRASKA

CITY           SKY/WX    TMP DP  RH WIND       PRES   REMARKS
NORFOLK        FOG       51  49  92 CALM      29.86F VSB 3/4
ALBION         FAIR      51  51  99 CALM      29.87F FOG
BLAIR          FAIR      62  60  95 N7        29.83F FOG
COLUMBUS       MOCLDY    56  54  93 CALM      29.87F
FREMONT        MOCLDY    62  60  95 CALM      29.85F
TEKAMAH        FAIR      59  58  96 N8        29.83F FOG
WAYNE          FAIR      50  49  95 CALM      29.86F
$$

NEZ050>053-065>068-078-088>093-190900-
SOUTHEAST NEBRASKA

CITY           SKY/WX    TMP DP  RH WIND       PRES   REMARKS
LINCOLN        CLOUDY    63  62  97 CALM      29.86R
OMAHA EPPLEY   CLOUDY    65  63  93 N9        29.81F
BEATRICE       CLOUDY    65  64  96 NE5       29.85R FOG
FALLS CITY     CLOUDY    66  62  87 VRB3      29.80S
NEBRASKA CITY  CLOUDY    64  64 100 NE6       29.83S
PLATTSMOUTH    CLOUDY    65  64  98 CALM      29.84S
$$

NEZ044-045-051>053-067-190900-
OMAHA AREA

CITY           SKY/WX    TMP DP  RH WIND       PRES   REMARKS
OMAHA EPPLEY   CLOUDY    65  63  93 N9        29.81F
BLAIR          FAIR      62  60  95 N7        29.83F FOG
FREMONT        MOCLDY    62  60  95 CALM      29.85F
MILLARD        MOCLDY    64  63  94 CALM      29.83F FOG
OFFUTT AFB     MOCLDY    64  61  88 NW3       29.81F
PLATTSMOUTH    CLOUDY    65  64  98 CALM      29.84S
WAHOO          PTSUNNY   61  61 100 N6        29.83F FOG
$$



 

View Past Reports for Omaha, NE.

Products Courtesy of NOAA-NWS
NWS Information Parsing Script by Ken True at Saratoga Weather - Script by SE Lincoln Weather.